FW4151 Weather Reports


time (UTC)temp
F
wind
direction
speed
knots
gust
knots
rain 1hr
in
rain 24hr
in
rain mn
in
humidity
%
barometer
mb
20260510183008 56 0.0 0.0 0.00 0.18 0.05 67 1013.5
20260510181505 56 0.0 0.0 0.00 0.18 0.05 64 1013.7
20260510180002 55 0.0 0.0 0.00 0.18 0.05 69 1013.5
20260510174607 54 0.0 0.0 0.00 0.22 0.05 73 1013.6
20260510173100 53 0.0 0.0 0.00 0.22 0.05 73 1013.6
20260510171555 53 0.0 0.0 0.00 0.22 0.05 75 1013.7
20260510170109 51 0.0 0.0 0.00 0.22 0.05 80 1013.6
20260510164608 51 0.0 0.0 0.00 0.23 0.05 82 1013.7
20260510163059 52 0.0 0.0 0.00 0.23 0.05 81 1013.7
20260510161549 52 0.0 0.0 0.00 0.23 0.05 82 1013.5
20260510160058 52 0.0 0.0 0.00 0.23 0.05 79 1013.4
20260510154555 52 0.0 0.0 0.00 0.23 0.05 81 1013.3
20260510153044 52 0.0 0.0 0.00 0.23 0.05 82 1013.1
20260510151540 51 0.0 0.0 0.00 0.23 0.05 83 1013.1
20260510150039 51 0.0 0.0 0.00 0.23 0.05 85 1012.9
20260510144542 51 0.0 0.0 0.00 0.23 0.05 88 1012.8
20260510143040 50 0.0 0.0 0.00 0.23 0.05 90 1012.8
20260510141530 51 0.0 0.0 0.00 0.23 0.05 92 1012.6
20260510140031 51 0.0 0.0 0.00 0.23 0.05 91 1012.3
20260510134524 0 0.0 0.0 0.00 0.23 0.05 1012.1
20260510133023 0 0.0 0.0 0.00 0.23 0.05 1011.8
20260510131519 0 0.0 0.0 0.00 0.23 0.05 1011.8
20260510130014 0 0.0 0.0 0.00 0.23 0.05 1012.0
20260510124510 0 0.0 0.0 0.00 0.23 0.05 1011.9
20260510123006 0 0.0 0.0 0.00 0.23 0.05 1011.7
20260510121503 0 0.0 0.0 0.00 0.23 0.05 1011.4
20260510120057 0 0.0 0.0 0.00 0.23 0.05 1011.2
20260510114553 0 0.0 0.0 0.00 0.23 0.05 1011.0
20260510113052 0 0.0 0.0 0.00 0.23 0.05 1010.9
20260510111547 0 0.0 0.0 0.00 0.23 0.05 1010.5
20260510110046 0 0.0 0.0 0.00 0.23 0.05 1010.2
20260510104544 0 0.0 0.0 0.00 0.23 0.05 1009.9
20260510103045 0 0.0 0.0 0.00 0.23 0.05 1009.6
20260510101543 0 0.0 0.0 0.00 0.23 0.05 1009.6
20260510100043 0 0.0 0.0 0.00 0.23 0.05 1009.4
20260510094549 0 0.0 0.0 0.00 0.23 0.05 1009.2
20260510093053 47 0.0 0.0 0.00 0.23 0.05 96 1009.0
20260510091542 47 0.0 0.0 0.00 0.23 0.05 96 1008.9
20260510090038 47 0.0 0.0 0.00 0.23 0.05 96 1008.6
20260510084535 46 0.0 0.0 0.00 0.24 0.05 96 1008.7
20260510083034 46 0.0 0.0 0.01 0.24 0.05 95 1008.7
20260510081533 46 0.0 0.0 0.01 0.24 0.05 95 1008.5
20260510080037 46 0.0 0.0 0.01 0.24 0.05 94 1008.5
20260510074531 46 0.0 0.0 0.01 0.25 0.05 94 1008.4
20260510073039 47 0.0 0.0 0.00 0.24 0.04 94 1008.2
20260510071528 47 0.0 0.0 0.00 0.24 0.04 94 1008.2
20260510070030 47 0.0 0.0 0.00 0.24 0.04 94 1008.4
20260510064524 47 0.0 0.0 0.00 0.26 0.04 94 1008.3
20260510063023 48 0.0 0.0 0.00 0.26 0.04 94 1008.4
20260510061521 48 0.0 0.0 0.01 0.26 0.04 94 1009.1
20260510060019 48 0.0 0.0 0.02 0.26 0.04 94 1009.0
20260510054519 48 0.0 0.0 0.04 0.27 0.04 94 1009.0
20260510053043 49 0.0 0.0 0.04 0.27 0.04 94 1009.8
20260510051518 49 0.0 0.0 0.03 0.26 0.03 94 1009.9
20260510050023 49 0.0 0.0 0.02 0.25 0.02 94 1010.2
20260510044517 49 0.0 0.0 0.00 0.23 0.00 94 1010.4
20260510043026 49 0.0 0.0 0.00 0.23 0.00 96 1010.2
20260510041517 49 0.0 0.0 0.00 0.23 0.00 96 1010.2
20260510040009 48 0.0 0.0 0.00 0.23 0.00 96 1009.2
20260510034506 47 0.0 0.0 0.00 0.23 0.23 96 1008.6
20260510033006 47 0.0 0.0 0.00 0.23 0.23 95 1008.6
20260510031509 47 0.0 0.0 0.00 0.23 0.23 95 1008.6
20260510030105 47 0.0 0.0 0.00 0.23 0.23 95 1008.3
20260510024505 47 0.0 0.0 0.00 0.23 0.23 95 1008.2
20260510023006 47 0.0 0.0 0.00 0.23 0.23 94 1008.2
20260510021510 47 0.0 0.0 0.00 0.23 0.23 94 1008.1
20260510020002 47 0.0 0.0 0.00 0.23 0.23 94 1008.1
20260510014503 47 0.0 0.0 0.00 0.23 0.23 93 1007.9
20260510013001 48 0.0 0.0 0.00 0.23 0.23 92 1007.8
20260510011600 48 0.0 0.0 0.00 0.23 0.23 92 1007.9
20260510010106 49 0.0 0.0 0.00 0.23 0.23 91 1007.8
20260510004602 49 0.0 0.0 0.00 0.23 0.23 91 1007.5
20260510003059 50 0.0 0.0 0.00 0.23 0.23 91 1007.1
20260510001558 51 0.0 0.0 0.00 0.23 0.23 90 1007.2
20260509234557 52 0.0 0.0 0.00 0.23 0.23 91 1007.1
20260509233058 52 0.0 0.0 0.00 0.23 0.23 91 1006.9
20260509231556 52 0.0 0.0 0.00 0.23 0.23 92 1006.6
20260509230056 52 0.0 0.0 0.00 0.23 0.23 92 1006.6
20260509224552 52 0.0 0.0 0.00 0.23 0.23 92 1006.9
20260509223051 52 0.0 0.0 0.00 0.23 0.23 92 1006.8
20260509221548 52 0.0 0.0 0.00 0.23 0.23 92 1006.7
20260509220047 52 0.0 0.0 0.00 0.23 0.23 93 1006.8
20260509214559 52 0.0 0.0 0.00 0.23 0.23 92 1006.9
20260509213040 52 0.0 0.0 0.00 0.23 0.23 94 1006.9
20260509211535 51 0.0 0.0 0.00 0.23 0.23 93 1007.1
20260509210035 51 0.0 0.0 0.00 0.23 0.23 94 1007.3
20260509204536 51 0.0 0.0 0.01 0.23 0.23 94 1007.3
20260509203030 51 0.0 0.0 0.02 0.23 0.23 95 1007.5
20260509201526 50 0.0 0.0 0.02 0.23 0.23 95 1007.6
20260509200024 50 0.0 0.0 0.03 0.23 0.23 95 1007.7
20260509194524 50 0.0 0.0 0.03 0.22 0.22 95 1007.8
20260509193027 50 0.0 0.0 0.06 0.21 0.21 95 1008.0
20260509191527 50 0.0 0.0 0.08 0.21 0.21 94 1008.0
20260509190028 50 0.0 0.0 0.09 0.20 0.20 95 1008.1
20260509184530 49 0.0 0.0 0.10 0.19 0.19 94 1008.2